Location: Baptist Hill School
(44.4501°N, 71.7104°W)
Time: 00:21:45
(UTC+00:00)

ARIANE 6 FM1 Upper Stage - Visible Passes

Search period start: 08 October 2024 00:00
Search period end: 18 October 2024 00:00
Orbit: 564 x 594 km, 62.0° (Epoch: 07 October)

Date Brightness Start Highest point End Pass type
(mag) Time Alt. Az. Time Alt. Az. Time Alt. Az.
10 Oct 5.3 00:36:29 10° N 00:37:18 11° N 00:37:18 11° N visible
11 Oct 5.3 00:40:22 10° N 00:41:27 13° N 00:41:27 13° N visible
12 Oct 5.2 00:44:22 10° NNW 00:45:36 15° N 00:45:36 15° N visible
13 Oct 5.1 00:48:26 10° NNW 00:49:45 17° N 00:49:45 17° N visible
13 Oct 5.1 23:14:58 10° N 23:15:59 11° NNE 23:17:00 10° NNE visible
14 Oct 5.1 00:52:32 10° NNW 00:53:55 18° NNW 00:53:55 18° NNW visible
14 Oct 4.9 23:18:33 10° N 23:20:38 13° NNE 23:21:49 12° NE visible
15 Oct 5.1 00:56:40 10° NNW 00:58:06 20° NNW 00:58:06 20° NNW visible
15 Oct 4.6 23:22:24 10° N 23:25:12 17° NNE 23:26:01 16° NE visible
16 Oct 5.1 01:00:51 10° NW 01:02:18 20° NW 01:02:18 20° NW visible
16 Oct 4.2 23:26:19 10° NNW 23:29:42 21° NE 23:30:15 21° NE visible
17 Oct 5.2 01:05:06 10° NW 01:06:33 20° NW 01:06:33 20° NW visible
17 Oct 3.8 23:30:18 10° NNW 23:34:07 29° NE 23:34:32 28° NE visible
